| time (UTC) | temp F | wind direction | speed MPH | gust MPH | rain 1hr in | rain 24hr in | rain mn in | humidity % | barometer mb |
| 20260504050140 | 50 | 14 | 3.0 | 5.0 | 0.00 | 0.00 | 0.00 | 62 | 999.2 |
| 20260504044540 | 51 | 16 | 4.0 | 7.0 | 0.00 | 0.00 | 0.00 | 61 | 999.1 |
| 20260504043044 | 51 | 22 | 4.0 | 10.0 | 0.00 | 0.00 | 0.00 | 61 | 999.1 |
| 20260504041538 | 52 | 30 | 9.0 | 19.0 | 0.00 | 0.00 | 0.00 | 60 | 999.0 |
| 20260504040037 | 52 | 30 | 15.0 | 26.0 | 0.00 | 0.00 | 0.00 | 59 | 998.4 |
| 20260504034542 | 54 | 30 | 24.0 | 33.0 | 0.00 | 0.00 | 0.00 | 57 | 997.7 |
| 20260504033040 | 59 | 28 | 29.0 | 37.0 | 0.00 | 0.00 | 0.00 | 46 | 997.2 |
| 20260504031536 | 64 | 319 | 11.0 | 16.0 | 0.00 | 0.00 | 0.00 | 34 | 995.8 |
| 20260504030039 | 65 | 319 | 9.0 | 13.0 | 0.00 | 0.00 | 0.00 | 32 | 995.7 |
| 20260504024535 | 66 | 302 | 10.0 | 14.0 | 0.00 | 0.00 | 0.00 | 31 | 995.4 |
| 20260504023034 | 66 | 290 | 14.0 | 19.0 | 0.00 | 0.00 | 0.00 | 30 | 995.3 |
| 20260504021536 | 67 | 302 | 11.0 | 17.0 | 0.00 | 0.00 | 0.00 | 29 | 995.3 |
| 20260504020040 | 67 | 273 | 11.0 | 19.0 | 0.00 | 0.00 | 0.00 | 28 | 995.0 |
| 20260504014537 | 67 | 250 | 12.0 | 18.0 | 0.00 | 0.00 | 0.00 | 27 | 995.0 |
| 20260504013030 | 68 | 265 | 14.0 | 22.0 | 0.00 | 0.00 | 0.00 | 25 | 995.2 |
| 20260504011526 | 69 | 252 | 13.0 | 19.0 | 0.00 | 0.00 | 0.00 | 25 | 995.6 |
| 20260504010023 | 70 | 273 | 15.0 | 24.0 | 0.00 | 0.00 | 0.00 | 25 | 996.0 |
| 20260504004521 | 71 | 271 | 15.0 | 28.0 | 0.00 | 0.00 | 0.00 | 24 | 996.3 |
| 20260504003017 | 72 | 261 | 14.0 | 25.0 | 0.00 | 0.00 | 0.00 | 24 | 996.5 |
| 20260504001515 | 72 | 277 | 15.0 | 26.0 | 0.00 | 0.00 | 0.00 | 24 | 996.9 |
| 20260504000013 | 73 | 290 | 15.0 | 22.0 | 0.00 | 0.00 | 0.00 | 22 | 997.2 |
| 20260503234517 | 74 | 310 | 15.0 | 26.0 | 0.00 | 0.00 | 0.00 | 21 | 997.4 |
| 20260503233009 | 74 | 291 | 19.0 | 29.0 | 0.00 | 0.00 | 0.00 | 21 | 997.6 |
| 20260503231507 | 75 | 281 | 21.0 | 29.0 | 0.00 | 0.00 | 0.00 | 22 | 997.8 |
| 20260503230008 | 75 | 283 | 19.0 | 25.0 | 0.00 | 0.00 | 0.00 | 23 | 998.1 |
| 20260503224504 | 75 | 284 | 18.0 | 31.0 | 0.00 | 0.00 | 0.00 | 23 | 998.5 |
| 20260503223001 | 75 | 288 | 19.0 | 29.0 | 0.00 | 0.00 | 0.00 | 23 | 998.7 |
| 20260503221602 | 75 | 277 | 21.0 | 31.0 | 0.00 | 0.00 | 0.00 | 22 | 999.1 |
| 20260503220058 | 75 | 277 | 18.0 | 32.0 | 0.00 | 0.00 | 0.00 | 23 | 999.3 |
| 20260503214555 | 73 | 288 | 18.0 | 29.0 | 0.00 | 0.00 | 0.00 | 26 | 999.7 |
| 20260503213100 | 73 | 290 | 17.0 | 23.0 | 0.00 | 0.00 | 0.00 | 25 | 1000.1 |
| 20260503211609 | 72 | 292 | 21.0 | 29.0 | 0.00 | 0.00 | 0.00 | 26 | 1000.5 |
| 20260503210049 | 73 | 287 | 20.0 | 34.0 | 0.00 | 0.00 | 0.00 | 24 | 1000.9 |
| 20260503204544 | 74 | 279 | 22.0 | 34.0 | 0.00 | 0.00 | 0.00 | 24 | 1001.2 |
| 20260503203048 | 74 | 289 | 23.0 | 30.0 | 0.00 | 0.00 | 0.00 | 25 | 1001.5 |
| 20260503201540 | 74 | 283 | 20.0 | 29.0 | 0.00 | 0.00 | 0.00 | 25 | 1001.9 |
| 20260503200052 | 74 | 288 | 20.0 | 34.0 | 0.00 | 0.00 | 0.00 | 24 | 1002.3 |
| 20260503194534 | 73 | 296 | 24.0 | 31.0 | 0.00 | 0.00 | 0.00 | 25 | 1002.6 |
| 20260503193035 | 73 | 303 | 20.0 | 29.0 | 0.00 | 0.00 | 0.00 | 26 | 1003.1 |
| 20260503191528 | 72 | 286 | 19.0 | 28.0 | 0.00 | 0.00 | 0.00 | 26 | 1003.4 |
| 20260503190025 | 72 | 272 | 17.0 | 25.0 | 0.00 | 0.00 | 0.00 | 26 | 1003.8 |
| 20260503184526 | 71 | 287 | 18.0 | 27.0 | 0.00 | 0.00 | 0.00 | 26 | 1004.2 |
| 20260503183019 | 71 | 282 | 16.0 | 29.0 | 0.00 | 0.00 | 0.00 | 27 | 1004.6 |
| 20260503181517 | 70 | 286 | 14.0 | 31.0 | 0.00 | 0.00 | 0.00 | 27 | 1005.0 |
| 20260503180020 | 70 | 273 | 19.0 | 28.0 | 0.00 | 0.00 | 0.00 | 28 | 1005.3 |
| 20260503174516 | 69 | 275 | 15.0 | 26.0 | 0.00 | 0.00 | 0.00 | 27 | 1005.8 |
| 20260503173008 | 69 | 277 | 15.0 | 25.0 | 0.00 | 0.00 | 0.00 | 28 | 1006.2 |
| 20260503171505 | 68 | 282 | 15.0 | 26.0 | 0.00 | 0.00 | 0.00 | 28 | 1006.6 |
| 20260503130104 | 47 | 247 | 5.0 | 9.0 | 0.00 | 0.00 | 0.00 | 55 | 1010.0 |
| 20260503081536 | 38 | 37 | 0.0 | 0.0 | 0.00 | 0.00 | 0.00 | 62 | 1011.1 |
| 20260503071518 | 39 | 38 | 1.0 | 2.0 | 0.00 | 0.00 | 0.00 | 64 | 1011.2 |
| 20260503054509 | 43 | 26 | 5.0 | 8.0 | 0.00 | 0.00 | 0.00 | 56 | 1011.3 |
| 20260503053003 | 42 | 24 | 6.0 | 10.0 | 0.00 | 0.00 | 0.00 | 57 | 1011.3 |